Location: Newark
(16.3678°N, 77.8722°E)
Time: 14:45:17
(UTC+00:00)

S-56A Canister/Altair - Pass Details

Date: 13 December 2019
Orbit: 634 x 2498 km, 38.9° (Epoch: 28 January)

Event Time Altitude Azimuth Distance (km) Brightness Sun altitude
Rises 10:44:35 0° 308° (NW) 6,048 12.4 18.9°
Reaches altitude 10° 10:48:50 10° 310° (NW) 4,894 11.9 18.0°
Maximum altitude 11:02:17 79° 36° (NE) 1,821 9.6 15.2°
Drops below altitude 10° 11:11:16 10° 123° (ESE) 3,396 10.6 13.4°
Sets 11:13:42 0° 124° (SE) 4,153 11.0 12.9°
